Faribault, MN

1:59 PM CDT on August 21, 2017 (GMT -0500)
Faribault Municipal

Weather History for KFBL - March, 2014

Change the Weather History Date:

Thursday, March 20, 2014

  Actual Average Record
Temperature  
Mean Temperature 32 °F -  
Max Temperature 44 °F 41 °F 65 °F (1976)
Min Temperature 19 °F 24 °F -4 °F (1965)
Degree Days  
Heating Degree Days 34    
Moisture  
Dew Point 24 °F    
Average Humidity 69    
Maximum Humidity 86    
Minimum Humidity 46    
Precipitation  
Precipitation 0.00 in - - ()
Sea Level Pressure  
Sea Level Pressure 29.98 in    
Wind  
Wind Speed 3 mph (South)    
Max Wind Speed 9 mph    
Max Gust Speed -    
Visibility 7 miles    
Events      
Averages and records for this station are not official NWS values.
T = Trace of Precipitation, MM = Missing Value Source: NWS Daily Summary

Daily Weather History Graph

Daily Weather History Graph

Search for Another Location

Airport or City:

Trip Planner

Search our weather history database for the weather conditions in past years. The results will help you decide how hot, cold, wet, or windy it might be!

Date:

Astronomy

Mar. 20, 2014 Rise Set
Actual Time 7:16 AM CDT 7:25 PM CDT
Civil Twilight 6:47 AM CDT 7:54 PM CDT
Nautical Twilight 6:13 AM CDT 8:28 PM CDT
Astronomical Twilight 5:38 AM CDT 9:03 PM CDT
Moon 11:56 PM CDT (3/20) 9:14 AM CDT (3/20)
Length of Visible Light 13h 07m
Length of Day
12h 09m
Waning Gibbous, 84% of the Moon is Illuminated
Mar 20
Waning Gibbous
Mar 23
Last Quarter
Mar 30
New
Apr 7
First Quarter
Apr 15
Full

Hourly Weather History & Observations

Time (CDT) Temp. Windchill Dew Point Humidity Pressure Visibility Wind Dir Wind Speed Gust Speed Precip Events Conditions
12:14 AM 33.8 °F - 26.6 °F 75% 29.98 in 10.0 mi Calm Calm - N/A   Overcast
12:33 AM 32.0 °F - 26.6 °F 80% 29.98 in 7.0 mi Calm Calm - N/A   Mostly Cloudy
12:54 AM 30.2 °F - 24.8 °F 80% 29.98 in 7.0 mi Calm Calm - N/A   Mostly Cloudy
1:14 AM 30.2 °F - 24.8 °F 80% 29.99 in 7.0 mi Calm Calm - N/A   Overcast
1:33 AM 30.2 °F 26.7 °F 24.8 °F 80% 29.99 in 5.0 mi WSW 3.5 mph - N/A   Haze
1:51 AM 28.4 °F 24.6 °F 23.0 °F 80% 29.99 in 4.0 mi SW 3.5 mph - N/A   Haze
2:14 AM 28.4 °F 24.6 °F 24.8 °F 86% 29.99 in 3.0 mi SW 3.5 mph - N/A   Haze
2:31 AM 30.2 °F 26.7 °F 24.8 °F 80% 30.00 in 2.0 mi WSW 3.5 mph - N/A   Haze
2:49 AM 24.8 °F - 19.4 °F 80% 29.99 in 0.2 mi Calm Calm - N/A   Haze
3:14 AM 24.8 °F - 19.4 °F 80% 29.99 in 0.8 mi Calm Calm - N/A   Haze
3:34 AM 26.6 °F 22.6 °F 21.2 °F 80% 29.99 in 0.2 mi SSW 3.5 mph - N/A   Haze
3:54 AM 24.8 °F 19.1 °F 17.6 °F 74% 29.99 in 0.2 mi SSW 4.6 mph - N/A   Haze
4:14 AM 24.8 °F 19.1 °F 19.4 °F 80% 29.99 in 0.2 mi SSW 4.6 mph - N/A   Haze
4:34 AM 24.8 °F 20.5 °F 19.4 °F 80% 29.99 in 0.5 mi SW 3.5 mph - N/A   Haze
4:54 AM 23.0 °F - 17.6 °F 80% 30.00 in 3.0 mi Calm Calm - N/A   Haze
5:14 AM 21.2 °F - 15.8 °F 80% 29.99 in 7.0 mi Calm Calm - N/A   Scattered Clouds
5:34 AM 21.2 °F - 15.8 °F 80% 30.00 in 10.0 mi Calm Calm - N/A   Mostly Cloudy
5:54 AM 19.4 °F - 15.8 °F 86% 30.00 in 7.0 mi Calm Calm - N/A   Overcast
6:13 AM 21.2 °F - 15.8 °F 80% 30.00 in 4.0 mi Calm Calm - N/A   Haze
6:34 AM 21.2 °F - 15.8 °F 80% 30.00 in 1.2 mi Calm Calm - N/A   Haze
6:54 AM 23.0 °F - 17.6 °F 80% 30.00 in 0.2 mi Calm Calm - N/A   Haze
7:14 AM 23.0 °F - 17.6 °F 80% 30.00 in 0.2 mi Calm Calm - N/A   Haze
7:34 AM 23.0 °F - 17.6 °F 80% 30.01 in 0.2 mi Calm Calm - N/A   Haze
7:54 AM 23.0 °F - 17.6 °F 80% 30.01 in 0.2 mi Calm Calm - N/A   Haze
8:14 AM 23.0 °F - 17.6 °F 80% 30.01 in 0.2 mi Calm Calm - N/A   Haze
8:34 AM 24.8 °F - 19.4 °F 80% 30.01 in 0.2 mi Calm Calm - N/A   Haze
8:54 AM 26.6 °F - 21.2 °F 80% 30.01 in 0.2 mi Calm Calm - N/A   Haze
9:14 AM 26.6 °F - 21.2 °F 80% 30.02 in 0.2 mi Calm Calm - N/A   Haze
9:33 AM 28.4 °F 24.6 °F 23.0 °F 80% 30.02 in 0.5 mi SSW 3.5 mph - N/A   Haze
9:54 AM 30.2 °F 26.7 °F 24.8 °F 80% 30.02 in 4.0 mi SSW 3.5 mph - N/A   Haze
10:14 AM 32.0 °F - 26.6 °F 80% 30.02 in 7.0 mi Calm Calm - N/A   Clear
10:33 AM 33.8 °F 30.8 °F 28.4 °F 81% 30.02 in 7.0 mi SSW 3.5 mph - N/A   Clear
10:54 AM 33.8 °F - 28.4 °F 81% 30.02 in 7.0 mi Calm Calm - N/A   Clear
11:14 AM 35.6 °F - 30.2 °F 81% 30.01 in 10.0 mi Calm Calm - N/A   Clear
11:34 AM 37.4 °F 34.9 °F 32.0 °F 81% 30.01 in 10.0 mi South 3.5 mph - N/A   Clear
11:54 AM 37.4 °F 33.8 °F 30.2 °F 75% 30.01 in 10.0 mi SSW 4.6 mph - N/A   Clear
12:14 PM 37.4 °F 31.4 °F 30.2 °F 75% 30.01 in 10.0 mi SSW 8.1 mph - N/A   Clear
12:34 PM 39.2 °F 34.2 °F 26.6 °F 61% 30.01 in 10.0 mi SSW 6.9 mph - N/A   Clear
12:54 PM 41.0 °F 36.4 °F 26.6 °F 57% 30.01 in 10.0 mi South 6.9 mph - N/A   Clear
1:13 PM 42.8 °F 38.6 °F 28.4 °F 57% 30.00 in 10.0 mi South 6.9 mph - N/A   Clear
1:34 PM 42.8 °F 39.3 °F 26.6 °F 53% 29.99 in 10.0 mi South 5.8 mph - N/A   Clear
1:54 PM 42.8 °F 39.3 °F 26.6 °F 53% 29.98 in 10.0 mi SSW 5.8 mph - N/A   Clear
2:13 PM 44.6 °F 41.4 °F 26.6 °F 49% 29.98 in 10.0 mi SSE 5.8 mph - N/A   Clear
2:34 PM 44.6 °F 41.4 °F 26.6 °F 49% 29.97 in 10.0 mi South 5.8 mph - N/A   Clear
2:54 PM 44.6 °F 41.4 °F 24.8 °F 46% 29.97 in 10.0 mi South 5.8 mph - N/A   Clear
3:13 PM 44.6 °F 40.7 °F 26.6 °F 49% 29.96 in 10.0 mi South 6.9 mph - N/A   Clear
3:34 PM 44.6 °F 40.7 °F 24.8 °F 46% 29.95 in 10.0 mi South 6.9 mph - N/A   Clear
3:54 PM 44.6 °F 40.7 °F 26.6 °F 49% 29.95 in 10.0 mi South 6.9 mph - N/A   Clear
4:14 PM 44.6 °F 40.7 °F 26.6 °F 49% 29.95 in 10.0 mi SSE 6.9 mph - N/A   Clear
4:34 PM 44.6 °F 41.4 °F 24.8 °F 46% 29.94 in 10.0 mi South 5.8 mph - N/A   Clear
4:53 PM 44.6 °F 40.2 °F 24.8 °F 46% 29.94 in 10.0 mi SSE 8.1 mph - N/A   Clear
5:14 PM 44.6 °F 41.4 °F 24.8 °F 46% 29.94 in 10.0 mi South 5.8 mph - N/A   Clear
5:34 PM 44.6 °F 40.2 °F 26.6 °F 49% 29.94 in 10.0 mi SSE 8.1 mph - N/A   Clear
5:53 PM 44.6 °F 41.4 °F 26.6 °F 49% 29.94 in 10.0 mi SSE 5.8 mph - N/A   Clear
6:14 PM 44.6 °F 40.7 °F 26.6 °F 49% 29.94 in 10.0 mi SSE 6.9 mph - N/A   Clear
6:34 PM 42.8 °F 38.0 °F 26.6 °F 53% 29.94 in 10.0 mi SSE 8.1 mph - N/A   Clear
6:53 PM 42.8 °F 38.6 °F 26.6 °F 53% 29.94 in 10.0 mi South 6.9 mph - N/A   Clear
7:14 PM 42.8 °F 39.3 °F 26.6 °F 53% 29.94 in 10.0 mi SSE 5.8 mph - N/A   Scattered Clouds
7:34 PM 41.0 °F 37.1 °F 26.6 °F 57% 29.94 in 10.0 mi SE 5.8 mph - N/A   Mostly Cloudy
7:54 PM 39.2 °F 35.9 °F 28.4 °F 65% 29.94 in 10.0 mi SE 4.6 mph - N/A   Overcast
8:14 PM 39.2 °F 34.2 °F 28.4 °F 65% 29.94 in 10.0 mi SE 6.9 mph - N/A   Mostly Cloudy
8:34 PM 39.2 °F 34.2 °F 26.6 °F 61% 29.95 in 10.0 mi SE 6.9 mph - N/A   Overcast
8:54 PM 37.4 °F 32.8 °F 26.6 °F 65% 29.94 in 10.0 mi SE 5.8 mph - N/A   Scattered Clouds
9:14 PM 37.4 °F 32.8 °F 26.6 °F 65% 29.94 in 10.0 mi SE 5.8 mph - N/A   Clear
9:34 PM 35.6 °F 30.7 °F 26.6 °F 70% 29.94 in 10.0 mi SE 5.8 mph - N/A   Clear
9:54 PM 35.6 °F 29.9 °F 26.6 °F 70% 29.94 in 10.0 mi SE 6.9 mph - N/A   Clear
10:14 PM 35.6 °F 30.7 °F 26.6 °F 70% 29.93 in 10.0 mi SE 5.8 mph - N/A   Clear
10:33 PM 35.6 °F 30.7 °F 26.6 °F 70% 29.92 in 10.0 mi SE 5.8 mph - N/A   Clear
10:54 PM 35.6 °F 32.8 °F 26.6 °F 70% 29.92 in 10.0 mi SE 3.5 mph - N/A   Clear
11:14 PM 35.6 °F 29.2 °F 26.6 °F 70% 29.91 in 10.0 mi SE 8.1 mph - N/A   Clear
11:33 PM 35.6 °F 28.6 °F 26.6 °F 70% 29.90 in 10.0 mi SE 9.2 mph - N/A   Clear
11:54 PM 35.6 °F 29.9 °F 24.8 °F 65% 29.89 in 10.0 mi SE 6.9 mph - N/A   Clear